Printer-friendly version
Follow the MPC on Twitter Follow the MPC on Facebook The MPC blog
Minor Planet Center

MPEC 2009-U58 : 2009 UP5

The following Minor Planet Electronic Circular may be linked-to from your own Web pages, but must not otherwise be redistributed electronically.

A form allowing access to any MPEC is at the bottom of this page.


Read MPEC 2009-U57 Read MPEC 2009-U59


M.P.E.C. 2009-U58                                Issued 2009 Oct. 21, 16:59 UT

     The Minor Planet Electronic Circulars contain information on unusual
         minor planets and routine data on comets.  They are published
   on behalf of Commission 20 of the International Astronomical Union by the
          Minor Planet Center, Smithsonian Astrophysical Observatory,
                          Cambridge, MA 02138, U.S.A.

             Prepared using the Tamkin Foundation Computer Network

                              MPC@CFA.HARVARD.EDU
          URL http://www.cfa.harvard.edu/iau/mpc.html  ISSN 1523-6714

                                   2009 UP5

Observations:
     K09U05P* C2009 10 20.08861 22 07 58.67 -19 53 58.9          18.9   EU058704
     K09U05P  C2009 10 20.10231 22 07 57.55 -19 52 22.5          19.3   EU058704
     K09U05P  C2009 10 20.11605 22 07 56.40 -19 50 44.7          19.5   EU058704
     K09U05P  C2009 10 20.12976 22 07 55.24 -19 49 07.8          19.6   EU058704
     K09U05P  C2009 10 20.14349 22 07 54.04 -19 47 30.1          19.3   EU058704
     K09U05P  C2009 10 21.15222 22 06 42.81 -17 48 57.4          18.7 V EU058H55
     K09U05P  C2009 10 21.15615 22 06 42.61 -17 48 29.8          18.6 V EU058H55
     K09U05P  C2009 10 21.16018 22 06 42.21 -17 48 01.6          18.8 V EU058H55
     K09U05P 6C2009 10 21.40004 22 06 25.88 -17 19 59.7          18.5 R EU058F65
     K09U05P 6C2009 10 21.40078 22 06 25.83 -17 19 54.4          19.1 R EU058F65
     K09U05P 6C2009 10 21.40144 22 06 25.79 -17 19 49.9          18.8 R EU058F65
     K09U05P 6C2009 10 21.40210 22 06 25.72 -17 19 45.6          18.9 R EU058F65
     K09U05P 6C2009 10 21.40279 22 06 25.67 -17 19 40.3          19.0 R EU058F65
     K09U05P  C2009 10 21.48633 22 06 21.52 -17 10 06.1          19.2 R EU058300
     K09U05P  C2009 10 21.48844 22 06 21.27 -17 09 51.6          19.2 R EU058300
     K09U05P  C2009 10 21.49056 22 06 21.17 -17 09 37.8          19.2 R EU058300
     K09U05P  C2009 10 21.49161 22 06 21.06 -17 09 29.2          19.2 R EU058300

Observer details:
300 Bisei Spaceguard Center--BATTeRS.  Observers A. Asami, N. Hashimoto.
    1.0-m f/3.0 reflector + CCD.
704 Lincoln Laboratory ETS, New Mexico.  Observers M. Bezpalko, D. Torres,
    R. Kracke, G. Spitz, M. Blythe.  Measurer J. Stuart.  1.0-m f/2.15
    reflector + CCD.
F65 Haleakala-Faulkes Telescope North.  Observer R. Miles.  2.0-m f/10.0
    Ritchey-Chretien + CCD.
H55 Astronomical Research Observatory, Charleston.  Observer R. Holmes.
    Measurer K. Dankov.  0.61-m f/4.5 astrograph + CCD.

Orbital elements:
2009 UP5                                                 Earth MOID = 0.1843 AU
Epoch 2010 Jan. 4.0 TT = JDT 2455200.5                  MPC
M  32.88199              (2000.0)            P               Q
n   0.42296316     Peri.  354.66391     +0.97552332     -0.15110302
a   1.7576579      Node    16.81507     +0.21659992     +0.53497175
e   0.3279916      Incl.   33.52143     +0.03793054     +0.83124792
P   2.33           H   19.5           G   0.15           U   9
Residuals in seconds of arc
091020 704  0.5-  0.7+    091021 H55  1.6+  0.1+    091021 F65  0.4-  0.2+
091020 704  0.0   0.2-    091021 H55  0.2+  0.1+    091021 300  0.6+  0.2+
091020 704  0.2+  0.1+    091021 F65  0.2-  0.0     091021 300  0.7-  0.0
091020 704  0.2+  0.4-    091021 F65  0.2-  0.2+    091021 300  0.1+  0.9-
091020 704  0.4-  0.3-    091021 F65  0.1-  0.0     091021 300  0.4-  0.3+
091021 H55  0.3+  0.1+    091021 F65  0.4-  0.3-

Ephemeris:
2009 UP5                 a,e,i = 1.76, 0.33, 34                  q = 1.1812
Date    TT    R. A. (2000) Decl.     Delta      r     Elong.  Phase     V
2009 10 16    22 14.20   -28 08.9    0.301    1.181   121.2    46.2    19.0
2009 10 26    22 02.68   -08 50.5    0.333    1.183   117.0    48.5    19.3
2009 11 05    22 00.92   +06 16.3    0.396    1.192   111.0    50.9    19.8
2009 11 15    22 05.40   +17 08.6    0.476    1.207   105.6    52.1    20.2
2009 11 25    22 14.55   +25 04.1    0.565    1.229   101.2    52.0    20.6
2009 12 05    22 27.50   +31 08.6    0.657    1.256    97.7    51.1    21.0
2009 12 15    22 43.89   +36 03.5    0.749    1.287    94.9    49.6    21.3
2009 12 25    23 03.71   +40 14.3    0.840    1.322    92.6    48.0    21.5
2010 01 04    23 27.00   +43 54.9    0.930    1.361    90.6    46.3    21.8
2010 01 14    23 53.97   +47 11.7    1.018    1.402    88.9    44.5    22.0

Sonia Keys                   (C) Copyright 2009 MPC           M.P.E.C. 2009-U58

Read MPEC 2009-U57 Read MPEC 2009-U59


MPEC number:

Enter an MPEC number in one of the following forms:

  • 1997-B01 (the full form)
  • J97B01 (the packed version of the full form)
  • B01 (the abbreviated form)

Valid HTML 4.01!